weather.gov     
National Weather Service

Terminal Aerodrome Forecast
NWS Homepage
This page is being discontinued on March 12, 2014.
The same data is available at this site. Please update your bookmarks.
Thank you, and we apologize for the inconvenience.
Please send an email to SR-SRH.Webmaster@noaa.gov with any concerns.


Current Version
Previous Version:    01  02  03  04  05  06  07  08  09  10  11  12  13  14  15  16  17  18  19  20  21  22  23  24  25  26  27  28  29  30  
   31  32  33  34  35  
[Printable]
930
FTUS43 KFSD 200537
TAFSUX
TAF
KSUX 200537Z 2006/2106 20007KT 3SM TSRA SCT035CB BKN090
     FM200700 28008KT P6SM BKN120
     FM201000 30006KT P6SM FEW150
     FM201500 30010KT P6SM SKC
     FM202000 28011G17KT P6SM SKC
     FM210300 31009KT P6SM SKC=




930
FTUS43 KFSD 200537
TAFSUX
TAF
KSUX 200537Z 2006/2106 20007KT 3SM TSRA SCT035CB BKN090
     FM200700 28008KT P6SM BKN120
     FM201000 30006KT P6SM FEW150
     FM201500 30010KT P6SM SKC
     FM202000 28011G17KT P6SM SKC
     FM210300 31009KT P6SM SKC=


U.S. Dept. of Commerce
NOAA National Weather Service
1325 East West Highway
Silver Spring, MD 20910
E-mail: w-nws.webmaster@noaa.gov
Page last modified: May 16, 2007
NATIONAL WEATHER SERVICE: for Safety, for Work, for Fun - FOR LIFE